STARLINK-30305, 57775

Orbit data source: Space-Track

STARLINK-30305, 57775 is a payload satellite owned by SpaceX/Seattle (US) in LEO that was launched on Mon, 04 Sep 2023 UTC via an FALCON 9 launch vehicle from the Air Force Eastern Test Range (AFETR). Payload-class satellites include a variety of spacecraft equipped with specific instruments for various scientific and technological missions. These include communications satellites like Starlink; space stations such as the ISS; scientific satellites like the Hubble; Earth observation satellites from companies like Planet Labs, Umbra, and HawkEye 360; GPS; miniature CubeSats for education and research; and military/defense satellites.

Loading next visibility...
Identifier
57775, 2023-134E
Orbit
LEO
Country
Flag of USUS
Related business
Manufacturer
SpaceX/Seattle
Mission
Operational Commercial Communications
Bus & Motor
STARLINK V2M, Unknown motor
Mass
730 kg wet, ~700 kg dry
Launch date (UTC)
2023-09-04 (2 years ago)
Launch vehicle
FALCON 9
Launch site
Air Force Eastern Test Range (AFETR)
Object type
Payload
Rocket body
Debris
Shape & HBR
Box + 2 Pan, 17.7 m
Radar Cross Section
33.884 m², Large (>1 m²)

Expand to show TLE details & history
Last TLE update: 11 hours ago

TLE from 11 hours ago
0 STARLINK-30305
1 57775U 23134E   25346.90808984 -.00002807  00000-0 -19291-3 0  9994
2 57775  43.0024 309.3489 0000847 316.4950  43.5825 15.02514892126417
Epoch: 2025-12-12T21:47Z
TLE epoch observation values (Epoch: 2025-12-12T21:47:38.962Z)
Latitude
-0.00003°
Longitude
-99.40645°
Altitude
558.497 km
Speed
7.584 km/s
True Right ascension
20h 37m 23s
True Declination
0° 00' 00"
Sunlit
Object was in daylight at epoch
Visualization orbit readout
Latitude
Unknown
Longitude
Unknown
Altitude
Unknown
Speed
Unknown
Apparent Right ascension
Unknown
Apparent Declination
Unknown
Sunlit
N/A
Visualization observer readout
Local Sidereal Time
07:30:58
Azimuth
Unknown
Elevation
Unknown
Doppler factor
Unknown
Orbital elements
Apogee altitude
561.656 km
Perigee altitude
560.48 km
Semi-major axis
6,939.205 km
Eccentricity
0.00008
Inclination
43.0024°
RAAN
309.3489°
Arg. of periapsis
316.495°
True anomaly
43.58919°
Mean anomaly
43.5825°
Eccentric anomaly
43.58585°
Mean motion
3.75473 °/min
Orbital period
95.88 mins
BSTAR
-0.00019291
Loading maneuver chart data...
Computing Atmospheric mass density...
Loading historical data...
Loading historical data...
Loading historical data...
Loading historical data...
Loading historical data...
Loading historical data...
Loading historical data...

Documentation

Showing up to 5 results
|